FW4070 Weather Reports


Display with metric or nautical units.
time (UTC)temp
F
wind
direction
speed
MPH
gust
MPH
rain 1hr
in
rain 24hr
in
rain mn
in
humidity
%
barometer
mb
20260831132039 70 163 4.0 8.0 0.00 0.28 0.15 82 1016.8
20260831131547 70 136 3.0 7.0 0.00 0.28 0.15 82 1016.8
20260831131058 70 200 3.0 10.0 0.00 0.28 0.15 83 1017.0
20260831130544 69 181 3.0 12.0 0.00 0.28 0.15 83 1017.0
20260831130054 69 178 5.0 8.0 0.00 0.28 0.15 83 1017.2
20260831125602 69 151 3.0 12.0 0.00 0.28 0.15 83 1017.2
20260831125003 69 142 4.0 12.0 0.00 0.28 0.15 82 1017.0
20260831124517 69 201 4.0 9.0 0.00 0.28 0.15 82 1016.9
20260831124027 69 184 3.0 12.0 0.00 0.28 0.15 82 1016.9
20260831123536 69 127 5.0 12.0 0.00 0.28 0.15 82 1016.8
20260831123038 69 133 4.0 9.0 0.00 0.28 0.15 82 1016.9
20260831122540 69 156 3.0 9.0 0.00 0.28 0.15 83 1016.9
20260831122048 69 165 4.0 9.0 0.00 0.28 0.15 83 1016.7
20260831121553 69 173 4.0 12.0 0.01 0.28 0.15 84 1016.7
20260831121040 69 193 4.0 12.0 0.01 0.28 0.15 84 1016.8
20260831120546 69 192 4.0 10.0 0.01 0.28 0.15 85 1016.8
20260831120040 68 119 3.0 10.0 0.01 0.28 0.15 85 1016.6
20260831115548 68 138 3.0 10.0 0.01 0.28 0.15 85 1016.5
20260831115050 68 165 3.0 7.0 0.01 0.28 0.15 86 1016.6
20260831114557 68 148 2.0 7.0 0.01 0.28 0.15 86 1016.7
20260831114047 68 149 3.0 7.0 0.01 0.28 0.15 87 1016.7
20260831113552 67 146 2.0 5.0 0.01 0.28 0.15 87 1016.7
20260831113100 67 166 3.0 7.0 0.01 0.28 0.15 88 1016.6
20260831112506 67 141 3.0 7.0 0.01 0.28 0.15 88 1016.7
20260831112014 67 151 2.0 5.0 0.00 0.28 0.15 88 1016.8
20260831111526 66 167 2.0 7.0 0.00 0.28 0.14 88 1017.0
20260831111036 66 182 2.0 7.0 0.00 0.28 0.14 88 1017.1
20260831110547 66 174 3.0 6.0 0.00 0.28 0.14 88 1017.3
20260831110134 66 158 2.0 8.0 0.01 0.28 0.14 88 1017.3
20260831105538 66 145 2.0 8.0 0.02 0.28 0.14 88 1017.0
20260831105048 66 168 2.0 7.0 0.02 0.28 0.14 89 1016.9
20260831104554 66 160 2.0 7.0 0.02 0.28 0.14 89 1016.9
20260831104106 66 150 3.0 7.0 0.02 0.28 0.14 89 1016.9
20260831103508 66 193 3.0 7.0 0.02 0.28 0.14 90 1016.9
20260831103022 65 184 3.0 7.0 0.02 0.28 0.14 90 1016.8
20260831102524 65 130 2.0 5.0 0.02 0.28 0.14 91 1016.8
20260831102034 65 157 3.0 5.0 0.02 0.28 0.14 91 1016.9
20260831101545 65 125 0.0 4.0 0.02 0.28 0.14 92 1016.8
20260831101054 65 121 1.0 4.0 0.02 0.28 0.14 92 1016.9
20260831100505 65 122 2.0 4.0 0.02 0.28 0.14 92 1017.1
20260831100011 65 192 1.0 5.0 0.00 0.26 0.13 92 1017.3
20260831095518 65 192 1.0 5.0 0.00 0.26 0.12 92 1017.3
20260831095024 65 184 1.0 4.0 0.00 0.26 0.12 91 1017.4
20260831094538 65 132 0.0 2.0 0.01 0.26 0.12 91 1017.2
20260831094038 65 132 0.0 2.0 0.02 0.26 0.12 91 1017.2
20260831093519 65 132 0.0 3.0 0.02 0.26 0.12 91 1017.0
20260831093032 65 132 1.0 3.0 0.02 0.26 0.12 91 1017.0
20260831092540 65 134 0.0 3.0 0.02 0.26 0.12 91 1017.0
20260831092026 65 134 1.0 3.0 0.02 0.26 0.12 91 1017.0
20260831091534 65 143 1.0 3.0 0.02 0.26 0.12 91 1017.0
20260831091035 65 143 1.0 3.0 0.02 0.26 0.12 90 1017.2
20260831090545 65 143 1.0 3.0 0.02 0.26 0.12 90 1017.2
20260831090046 66 166 1.0 4.0 0.02 0.26 0.12 90 1017.2
20260831085553 66 167 2.0 3.0 0.02 0.26 0.12 90 1017.2
20260831085036 66 167 1.0 4.0 0.02 0.26 0.12 90 1017.4
20260831084547 66 173 0.0 4.0 0.01 0.25 0.11 90 1017.6
20260831084015 66 144 1.0 4.0 0.00 0.24 0.10 90 1017.6
20260831083503 66 131 0.0 3.0 0.00 0.24 0.10 90 1017.5
20260831083020 66 131 0.0 3.0 0.00 0.24 0.10 90 1017.4
20260831082522 66 132 1.0 3.0 0.00 0.24 0.10 90 1017.3
20260831082004 66 132 1.0 3.0 0.00 0.24 0.10 90 1017.4
20260831081521 66 132 0.0 3.0 0.00 0.24 0.10 90 1017.4
20260831081031 66 132 2.0 3.0 0.00 0.24 0.10 90 1017.4
20260831080536 66 132 1.0 4.0 0.00 0.24 0.10 90 1017.4
20260831080043 66 132 1.0 4.0 0.00 0.24 0.10 91 1017.5
20260831075549 66 133 2.0 3.0 0.01 0.24 0.10 91 1017.5
20260831075056 66 133 2.0 3.0 0.01 0.24 0.10 91 1017.5
20260831074601 66 157 1.0 3.0 0.01 0.24 0.10 90 1017.6
20260831074006 66 157 1.0 3.0 0.01 0.24 0.10 90 1017.7
20260831073514 66 158 1.0 5.0 0.01 0.24 0.10 90 1017.8
20260831073006 66 158 1.0 6.0 0.01 0.24 0.10 90 1017.9
20260831072515 66 161 1.0 6.0 0.01 0.24 0.10 91 1017.9
20260831072021 66 155 2.0 11.0 0.01 0.24 0.10 91 1018.0
20260831071523 65 195 3.0 11.0 0.01 0.24 0.10 91 1017.9
20260831071017 65 132 2.0 5.0 0.01 0.24 0.10 91 1017.8
20260831070508 65 173 1.0 3.0 0.02 0.24 0.10 91 1018.0
20260831070048 65 182 1.0 5.0 0.02 0.24 0.10 91 1018.2
20260831065558 65 196 1.0 5.0 0.01 0.23 0.09 91 1018.3
20260831065003 65 188 1.0 6.0 0.01 0.23 0.09 91 1018.4
20260831064529 65 173 1.0 8.0 0.01 0.23 0.09 91 1018.3
20260831064028 65 199 2.0 9.0 0.01 0.23 0.09 91 1018.4
20260831063539 65 178 3.0 9.0 0.01 0.23 0.09 92 1018.3
20260831063049 65 169 2.0 7.0 0.01 0.23 0.09 92 1018.2
20260831062552 65 201 2.0 6.0 0.01 0.23 0.09 92 1018.3
20260831062059 65 197 1.0 6.0 0.01 0.23 0.09 92 1018.4
20260831061509 65 168 2.0 4.0 0.02 0.23 0.09 92 1018.3
20260831061059 65 164 2.0 4.0 0.02 0.23 0.09 92 1018.4
20260831060507 65 164 2.0 4.0 0.02 0.22 0.08 92 1018.4
20260831060018 65 139 2.0 4.0 0.02 0.22 0.08 92 1018.2
20260831055515 65 174 1.0 7.0 0.03 0.22 0.08 93 1018.4
20260831055031 65 140 2.0 7.0 0.04 0.22 0.08 93 1018.3
20260831054540 65 145 2.0 6.0 0.04 0.22 0.08 93 1018.3
20260831054046 65 165 1.0 6.0 0.06 0.22 0.08 93 1018.4
20260831053532 65 201 1.0 9.0 0.06 0.22 0.08 93 1018.5
20260831053040 65 165 2.0 9.0 0.07 0.22 0.08 93 1018.5
20260831052543 65 198 0.0 4.0 0.07 0.22 0.08 93 1018.3
20260831052031 65 198 0.0 5.0 0.07 0.22 0.08 93 1018.5
20260831051534 65 198 1.0 5.0 0.06 0.21 0.07 93 1018.6
20260831051043 65 249 1.0 3.0 0.06 0.20 0.07 93 1018.6
20260831050549 65 211 0.0 4.0 0.06 0.20 0.06 93 1018.5
20260831050135 65 211 1.0 4.0 0.06 0.20 0.06 93 1018.6
20260831045507 65 193 0.0 4.0 0.05 0.19 0.05 93 1018.6
20260831045025 65 196 0.0 4.0 0.06 0.18 0.04 93 1018.5
20260831044527 65 204 0.0 3.0 0.05 0.17 0.04 93 1018.7
20260831044020 65 204 0.0 3.0 0.05 0.16 0.02 93 1018.7
20260831043511 65 212 0.0 2.0 0.04 0.15 0.01 93 1018.7
20260831043020 65 215 0.0 0.0 0.05 0.15 0.01 93 1018.5
20260831042527 65 215 0.0 0.0 0.05 0.15 0.01 93 1018.5
20260831042035 65 215 0.0 0.0 0.06 0.15 0.01 93 1018.5
20260831041517 66 215 0.0 0.0 0.06 0.15 0.01 93 1018.5
20260831041031 66 215 0.0 0.0 0.05 0.14 0.00 93 1018.6
20260831040534 66 215 0.0 2.0 0.05 0.14 0.00 93 1018.7
20260831040040 66 215 0.0 3.0 0.06 0.14 0.14 93 1019.0
20260831035508 66 360 0.0 3.0 0.05 0.13 0.14 93 1019.0
20260831035052 66 185 0.0 3.0 0.04 0.12 0.12 93 1018.9
20260831034600 66 184 1.0 4.0 0.04 0.12 0.12 93 1018.8
20260831034502 66 184 0.0 4.0 0.04 0.12 0.12 93 1018.8
20260831034109 66 184 1.0 4.0 0.03 0.11 0.11 93 1018.7
20260831033552 66 206 0.0 4.0 0.03 0.11 0.11 93 1018.8
20260831033036 66 189 1.0 3.0 0.02 0.10 0.10 93 1018.8
20260831032542 66 199 1.0 3.0 0.02 0.10 0.10 93 1018.9
20260831032055 66 198 0.0 3.0 0.01 0.09 0.09 93 1019.0
20260831031556 66 198 0.0 5.0 0.01 0.09 0.09 93 1018.9
20260831031004 66 360 1.0 5.0 0.01 0.09 0.09 93 1018.9
20260831030510 66 198 0.0 0.0 0.00 0.08 0.09 93 1018.9
20260831030038 66 197 0.0 0.0 0.00 0.08 0.08 93 1019.0
20260831025556 66 197 0.0 0.0 0.00 0.08 0.08 93 1019.0
20260831025004 66 197 0.0 0.0 0.00 0.08 0.08 93 1019.1
20260831024518 66 197 0.0 0.0 0.00 0.08 0.08 93 1019.1
20260831024028 66 197 0.0 0.0 0.00 0.08 0.08 93 1019.2
20260831023522 66 197 0.0 0.0 0.00 0.08 0.08 93 1019.1
20260831023100 66 197 0.0 0.0 0.00 0.08 0.08 93 1019.1
20260831022508 67 197 0.0 0.0 0.00 0.08 0.08 93 1019.1
20260831022017 67 197 0.0 0.0 0.00 0.08 0.08 93 1019.2
20260831021520 67 197 0.0 0.0 0.00 0.08 0.08 93 1019.1
20260831021010 67 197 0.0 0.0 0.00 0.08 0.08 93 1019.1
20260831020508 67 197 0.0 0.0 0.00 0.08 0.08 93 1019.2
20260831020014 67 197 0.0 0.0 0.01 0.08 0.08 93 1019.2
20260831015515 67 197 0.0 0.0 0.01 0.08 0.08 93 1019.2
20260831015029 67 197 0.0 0.0 0.01 0.08 0.08 93 1019.3
20260831014547 67 197 0.0 0.0 0.02 0.08 0.08 93 1019.5
20260831014032 67 197 0.0 0.0 0.02 0.08 0.08 93 1019.5
20260831013540 67 197 0.0 0.0 0.02 0.08 0.08 93 1019.5
20260831013055 67 197 0.0 0.0 0.02 0.08 0.08 93 1019.5
20260831012601 67 197 0.0 0.0 0.02 0.08 0.08 93 1019.5
20260831012504 67 197 0.0 0.0 0.02 0.08 0.08 93 1019.5
20260831012058 67 197 0.0 0.0 0.02 0.08 0.08 93 1019.4
20260831011507 67 198 0.0 0.0 0.02 0.08 0.08 93 1019.5
20260831011024 67 198 0.0 0.0 0.02 0.08 0.08 93 1019.5
20260831010527 67 198 0.0 0.0 0.02 0.08 0.08 93 1019.5
20260831010031 66 198 0.0 0.0 0.01 0.07 0.07 93 1019.5
20260831005517 66 198 0.0 0.0 0.01 0.07 0.07 93 1019.4
20260831005032 67 198 0.0 0.0 0.01 0.07 0.07 93 1019.2
20260831004536 67 198 0.0 0.0 0.00 0.06 0.07 92 1019.2
20260831004044 67 198 0.0 0.0 0.00 0.06 0.06 92 1019.0
20260831003548 67 198 0.0 0.0 0.00 0.06 0.06 92 1019.0
20260831003058 67 198 0.0 0.0 0.00 0.06 0.06 92 1018.9
20260831002505 67 198 0.0 0.0 0.00 0.06 0.06 92 1018.8
20260831002016 67 198 0.0 0.0 0.00 0.06 0.06 92 1018.7
20260831001511 67 198 0.0 0.0 0.00 0.06 0.06 92 1018.7
20260831001026 67 198 0.0 0.0 0.00 0.06 0.06 92 1018.7
20260831000526 67 198 0.0 0.0 0.00 0.06 0.06 92 1018.6
20260831000053 68 198 0.0 0.0 0.00 0.06 0.06 92 1018.6
20260830235545 68 198 0.0 0.0 0.00 0.06 0.06 92 1018.5
20260830235056 68 198 0.0 0.0 0.00 0.06 0.06 92 1018.5
20260830234511 68 198 0.0 0.0 0.00 0.06 0.06 92 1018.4
20260830234021 68 198 0.0 0.0 0.00 0.06 0.06 92 1018.4
20260830233519 68 198 0.0 0.0 0.00 0.06 0.06 92 1018.3
20260830233048 68 198 0.0 0.0 0.00 0.06 0.06 91 1018.3
20260830232536 69 198 0.0 0.0 0.00 0.06 0.06 92 1018.2
20260830232039 69 198 0.0 0.0 0.00 0.06 0.06 92 1018.2
20260830231533 69 198 0.0 0.0 0.00 0.06 0.06 92 1018.0
20260830231040 69 198 0.0 0.0 0.00 0.06 0.06 92 1017.9
20260830230549 69 198 0.0 0.0 0.00 0.06 0.06 92 1018.0
20260830230054 69 198 0.0 0.0 0.00 0.06 0.06 92 1018.0
20260830225541 69 198 0.0 0.0 0.00 0.06 0.06 91 1017.9
20260830225033 69 198 0.0 0.0 0.00 0.06 0.06 91 1017.8
20260830224518 69 198 0.0 0.0 0.00 0.06 0.06 91 1017.9
20260830224022 69 198 0.0 0.0 0.00 0.06 0.06 91 1017.9
20260830223558 69 198 0.0 0.0 0.00 0.06 0.06 92 1018.0
20260830223102 69 198 0.0 0.0 0.00 0.06 0.06 91 1018.1
20260830222509 69 198 0.0 0.0 0.01 0.06 0.06 91 1018.0
20260830222013 69 198 0.0 0.0 0.01 0.06 0.06 91 1017.9
20260830221524 69 198 0.0 0.0 0.01 0.06 0.06 91 1017.9
20260830221007 69 198 0.0 0.0 0.02 0.06 0.06 91 1018.0
20260830220522 69 198 0.0 0.0 0.02 0.06 0.06 91 1017.8
20260830220052 68 198 0.0 0.0 0.03 0.06 0.06 90 1017.7
20260830215509 68 198 0.0 0.0 0.03 0.06 0.06 90 1017.6
20260830215018 68 198 0.0 1.0 0.03 0.06 0.06 90 1017.5
20260830214521 68 198 0.0 3.0 0.03 0.06 0.06 89 1017.4
20260830214001 68 198 0.0 3.0 0.03 0.06 0.06 89 1017.4
20260830213509 68 196 0.0 2.0 0.03 0.06 0.06 90 1017.5
20260830213059 68 196 0.0 2.0 0.03 0.06 0.06 89 1017.5
20260830212507 68 196 0.0 2.0 0.03 0.05 0.05 89 1017.6
20260830212057 68 196 0.0 2.0 0.03 0.05 0.05 89 1017.6
20260830211510 68 196 0.0 4.0 0.03 0.05 0.05 89 1017.7
20260830211053 68 196 0.0 4.0 0.02 0.04 0.04 88 1017.8
20260830210520 68 196 0.0 4.0 0.02 0.04 0.04 88 1017.9
20260830210100 68 196 0.0 4.0 0.01 0.03 0.04 88 1017.9
20260830205509 68 196 1.0 4.0 0.01 0.03 0.03 88 1017.9
20260830205019 68 195 2.0 4.0 0.01 0.03 0.03 87 1018.1
20260830204523 68 210 1.0 5.0 0.01 0.03 0.03 87 1018.1
20260830204017 68 210 1.0 5.0 0.01 0.03 0.03 86 1018.3
20260830203511 68 228 0.0 3.0 0.01 0.03 0.03 86 1018.4
20260830203025 68 232 0.0 1.0 0.01 0.03 0.03 85 1018.5
20260830202531 68 232 0.0 0.0 0.00 0.02 0.02 84 1018.6
20260830202037 68 232 0.0 4.0 0.00 0.02 0.02 82 1018.6
20260830201556 68 232 1.0 5.0 0.00 0.02 0.02 80 1018.7
20260830201050 69 234 1.0 6.0 0.00 0.02 0.02 79 1018.7
20260830200533 69 231 2.0 10.0 0.00 0.02 0.02 78 1018.7
20260830200043 69 235 4.0 11.0 0.00 0.02 0.02 76 1018.7
20260830195519 70 360 5.0 11.0 0.00 0.02 0.02 79 1018.8
20260830195033 70 360 3.0 13.0 0.00 0.02 0.02 82 1018.8
20260830194539 70 236 4.0 13.0 0.00 0.02 0.02 83 1018.7
20260830194046 70 360 3.0 11.0 0.00 0.02 0.02 85 1018.7
20260830193533 71 252 2.0 6.0 0.00 0.02 0.02 86 1018.7
20260830193041 71 360 2.0 6.0 0.00 0.02 0.02 86 1018.7
20260830192544 71 226 3.0 6.0 0.00 0.02 0.02 86 1018.6
20260830192053 71 241 1.0 4.0 0.00 0.02 0.02 87 1018.7
20260830191621 71 360 2.0 4.0 0.00 0.02 0.02 87 1018.6
20260830191101 71 238 1.0 3.0 0.00 0.02 0.02 88 1018.6
20260830190507 71 236 1.0 4.0 0.00 0.02 0.02 88 1018.6
20260830190028 71 236 1.0 4.0 0.00 0.02 0.02 88 1018.6
20260830185527 71 217 0.0 3.0 0.00 0.02 0.02 88 1018.7
20260830185021 70 217 0.0 4.0 0.00 0.02 0.02 88 1018.8
20260830184527 70 216 1.0 4.0 0.00 0.02 0.02 88 1018.8
20260830184004 70 269 0.0 3.0 0.00 0.02 0.02 89 1018.9
20260830183523 70 269 0.0 3.0 0.00 0.02 0.02 89 1019.0
20260830183007 70 309 1.0 3.0 0.00 0.02 0.02 89 1019.1
20260830182506 70 319 0.0 3.0 0.00 0.02 0.02 89 1019.1
20260830182002 70 319 1.0 3.0 0.00 0.02 0.02 89 1019.1
20260830181544 70 325 0.0 0.0 0.00 0.02 0.02 90 1019.2
20260830181049 70 325 0.0 0.0 0.00 0.02 0.02 89 1019.2
20260830180530 70 325 0.0 0.0 0.00 0.02 0.02 89 1019.2
20260830180038 70 325 0.0 0.0 0.00 0.02 0.02 89 1019.2
20260830175538 69 325 0.0 1.0 0.01 0.02 0.02 89 1019.2
20260830175047 69 325 0.0 3.0 0.01 0.02 0.02 89 1019.3
20260830174555 70 325 1.0 3.0 0.01 0.02 0.02 89 1019.3
20260830174034 70 328 0.0 2.0 0.01 0.02 0.02 90 1019.3
20260830173521 69 328 0.0 3.0 0.02 0.02 0.02 90 1019.3
20260830173029 69 328 0.0 4.0 0.02 0.02 0.02 90 1019.4
20260830172506 69 328 1.0 4.0 0.02 0.02 0.02 89 1019.5
20260830172023 69 327 0.0 1.0 0.02 0.02 0.02 90 1019.4
20260830171525 69 327 0.0 3.0 0.02 0.02 0.02 90 1019.4
20260830171032 69 327 2.0 3.0 0.02 0.02 0.02 89 1019.4
20260830170541 70 327 0.0 2.0 0.02 0.02 0.02 90 1019.5
20260830170053 70 327 0.0 3.0 0.02 0.02 0.02 90 1019.4
20260830165558 70 327 1.0 4.0 0.01 0.01 0.01 89 1019.4
20260830165501 70 327 1.0 4.0 0.01 0.01 0.01 89 1019.4
20260830165105 70 327 2.0 4.0 0.01 0.01 0.01 89 1019.4
20260830164549 70 323 0.0 2.0 0.01 0.01 0.01 88 1019.4
20260830164053 70 323 0.0 2.0 0.01 0.01 0.01 88 1019.5
20260830163503 70 323 0.0 5.0 0.00 0.00 0.00 87 1019.5
20260830163018 70 322 1.0 5.0 0.00 0.00 0.00 87 1019.5
20260830162519 71 321 2.0 3.0 0.00 0.00 0.00 85 1019.4
20260830162100 71 234 0.0 0.0 0.00 0.00 0.00 85 1019.4
20260830161508 71 234 0.0 1.0 0.00 0.00 0.00 83 1019.3
20260830161014 72 234 0.0 2.0 0.00 0.00 0.00 82 1019.2
20260830160522 72 234 0.0 2.0 0.00 0.00 0.00 81 1019.2
20260830160037 72 234 0.0 3.0 0.00 0.00 0.00 79 1019.1
20260830155532 72 234 0.0 3.0 0.00 0.00 0.00 79 1019.3
20260830155038 72 234 0.0 3.0 0.00 0.00 0.00 77 1019.3
20260830154545 72 234 1.0 4.0 0.00 0.00 0.00 77 1019.4
20260830154050 72 234 1.0 4.0 0.00 0.00 0.00 76 1019.4
20260830153558 72 251 1.0 4.0 0.00 0.00 0.00 76 1019.4
20260830153016 72 244 1.0 5.0 0.00 0.00 0.00 75 1019.4
20260830152523 72 244 1.0 5.0 0.00 0.00 0.00 75 1019.4
20260830152037 71 219 1.0 5.0 0.00 0.00 0.00 75 1019.4
20260830151542 71 224 0.0 5.0 0.00 0.00 0.00 76 1019.4
20260830151042 71 219 0.0 4.0 0.00 0.00 0.00 76 1019.5
20260830150529 71 216 0.0 2.0 0.00 0.00 0.00 76 1019.5
20260830150019 71 217 1.0 4.0 0.00 0.00 0.00 75 1019.5
20260830145524 71 216 1.0 4.0 0.00 0.00 0.00 74 1019.4
20260830145026 71 221 1.0 3.0 0.00 0.00 0.00 74 1019.5
20260830144545 71 223 1.0 3.0 0.00 0.00 0.00 73 1019.5
20260830144046 71 223 1.0 4.0 0.00 0.00 0.00 73 1019.5
20260830143552 71 223 1.0 4.0 0.00 0.00 0.00 73 1019.4
20260830143043 71 206 1.0 3.0 0.00 0.00 0.00 73 1019.2
20260830142549 71 205 0.0 3.0 0.00 0.00 0.00 72 1019.1
20260830142054 71 207 1.0 3.0 0.00 0.00 0.00 72 1019.0
20260830141559 71 238 0.0 3.0 0.00 0.00 0.00 72 1019.0
20260830141008 71 237 1.0 3.0 0.00 0.00 0.00 71 1018.9
20260830140518 72 242 0.0 5.0 0.00 0.00 0.00 70 1018.8
20260830140030 72 242 1.0 5.0 0.00 0.00 0.00 70 1018.8
20260830135519 72 195 1.0 3.0 0.00 0.00 0.00 70 1018.7
20260830135020 72 218 1.0 3.0 0.00 0.00 0.00 70 1018.7
20260830134525 72 217 1.0 4.0 0.00 0.00 0.00 69 1018.7
20260830134036 72 215 1.0 4.0 0.00 0.00 0.00 68 1018.6
20260830133541 72 216 0.0 6.0 0.00 0.00 0.00 69 1018.6
20260830133101 72 190 2.0 6.0 0.00 0.00 0.00 68 1018.6
20260830132542 72 176 1.0 6.0 0.00 0.00 0.00 68 1018.6